Starlink 34693

operational
NORAD ID: 64793 Int'l Des: 2025-150 Owner: SPXS Country: US Constellation: starlink
LEOCIRCULAR

Über Starlink 34693

Beschreibung wird geladen...

Live-Position

3D-Globus wird geladen...

Nächste Überflüge

Höhenverlauf

Altitude vs Time

uPlot chart will show altitude changes over time

Zweizeiliger Elementsatz

1 64793U 25150D 25341.00002315 -.01554505 00000-0 -48179-1 0 9995
2 64793 69.9998 9.1689 0003413 275.3909 214.3847 15.36620194 5865
Epoch: 7. Dez. 2025 • Age: 7 hours

Aktueller Status

Höhe 472.8 km
Geschwindigkeit 7.63 km/s
Subsatellitenpunkt -41.72°S, 31°E
Startdatum 16. Juli 2025
Alter 0.3 years
Typ internet

Technische Details

Klassifizierung Payload
Masse 575.00 kg
Trockenmasse 530.00 kg
Gesamtmasse 575.00 kg
Länge 0.30 m
Durchmesser 4.10 m
Spannweite 29.00 m
Form Box + pan
Hersteller SPXS
Bus-Typ Starlink V2MO
Phasenstatus In Orbit
Besitzer/Staat SPXS/US

Große Konstellationen

Loading constellations...